Regional Weather Roundup
Issued by NWS

Home | Current Version | Previous Version | Graphics & Text | Print | Product List | Glossary On
Versions: 1 2 3 4 5 6 7 8 9 10 11 12 13 14 15 16 17 18 19 20 21 22 23 24 25 26 27 28 29 30 31 32 33 34 35 36 37 38 39 40 41 42 43 44 45 46 47 48 49 50
000
ASUS43 KOAX 280210
RWRNE

WEATHER ROUNDUP FOR NEBRASKA
NATIONAL WEATHER SERVICE OMAHA NE
800 PM CST TUE JAN 27 2015

NOTES: SATELLITE DATA IS BEING USED TO AUGMENT CLOUD COVER ABOVE
       12000 FEET.
       "FAIR" INDICATES FEW OR NO CLOUDS BELOW 12,000 FEET WITH NO
       SIGNIFICANT WEATHER AND/OR OBSTRUCTIONS TO VISIBILITY.

  * THESE STATIONS DO NOT REPORT WEATHER SUCH AS RAIN...SNOW OR FOG.

NEZ001>004-019>022-054>056-280300-
NEBRASKA PANHANDLE

CITY           SKY/WX    TMP DP  RH WIND       PRES   REMARKS
SCOTTSBLUFF      N/A    N/A N/A N/A MISG      29.97R
ALLIANCE       CLOUDY    39  30  70 W9        29.95R WCI  33
CHADRON        CLOUDY    42  33  70 SW6       29.90S
KIMBALL        CLEAR     45  31  58 NW8       30.00S
SIDNEY         MOCLDY    40  30  67 W8        29.98S WCI  34
$$

NEZ057>060-069>072-079>082-280300-
SOUTHWEST NEBRASKA

CITY           SKY/WX    TMP DP  RH WIND       PRES   REMARKS
NORTH PLATTE   PTCLDY    38  28  67 CALM      29.92F
IMPERIAL       MOCLDY    51  27  39 CALM      29.94S
LEXINGTON      CLEAR     47  32  56 SE3       29.92S
MCCOOK         PTCLDY    52  31  44 S5        29.92S
OGALLALA       CLOUDY    42  31  65 W3        29.93F
$$

NEZ005>010-023>029-035>040-094-280300-
NORTH CENTRAL NEBRASKA

CITY           SKY/WX    TMP DP  RH WIND       PRES   REMARKS
VALENTINE      CLEAR     43  32  65 CALM      29.87F
AINSWORTH      CLEAR     41  31  68 S8        29.88F
BROKEN BOW     CLEAR     35  28  75 CALM      29.91S
O`NEILL        CLEAR     45  36  71 SE8       29.91F
ORD            CLEAR     43  32  65 SE5       29.91S
THEDFORD       CLEAR     51  33  50 SW3       29.91S
$$

NEZ041-046>049-061>064-073>077-083>087-280300-
SOUTH CENTRAL NEBRASKA

CITY           SKY/WX    TMP DP  RH WIND       PRES   REMARKS
GRAND ISLAND   CLEAR     46  33  60 SE8       29.95S
AURORA         CLEAR     40  30  68 SE10      29.96S WCI  33
HASTINGS       CLEAR     51  32  48 SE13      29.93F
HEBRON         CLEAR     48  32  53 SE6       29.96S
HOLDREGE       PTCLDY    44  29  56 SE5       29.93S
KEARNEY *      CLEAR     46  28  49 SE7       29.94R
YORK           CLEAR     46  32  57 SE12      29.97S
$$

NEZ011>018-030>034-042>045-280300-
NORTHEAST NEBRASKA

CITY           SKY/WX    TMP DP  RH WIND       PRES   REMARKS
NORFOLK        CLEAR     41  32  70 SE12      29.97S
ALBION         CLEAR     37  30  75 SE7       29.96S WCI  32
BLAIR          CLEAR     44  31  61 SE10      30.03S
COLUMBUS *     CLEAR     43  28  56 SE9       30.00S
FREMONT        CLEAR     43  31  63 SE9       30.01F
TEKAMAH        CLEAR     38  30  73 SE9       30.03F WCI  31
WAYNE          CLEAR     38  32  77 S10       30.00S WCI  32
$$

NEZ050>053-065>068-078-088>093-280300-
SOUTHEAST NEBRASKA

CITY           SKY/WX    TMP DP  RH WIND       PRES   REMARKS
LINCOLN        CLEAR     47  31  53 SE13      30.02S
OMAHA EPPLEY   CLEAR     44  30  57 SE12      30.05S
BEATRICE       CLEAR     46  31  57 SE8       30.00S
FALLS CITY     CLEAR     42  29  59 SE10      30.05F
NEBRASKA CITY  CLEAR     44  26  49 SE10      30.04F
PLATTSMOUTH    CLEAR     43  29  57 SE8       30.04S
$$

NEZ044-045-051>053-067-280300-
OMAHA AREA

CITY           SKY/WX    TMP DP  RH WIND       PRES   REMARKS
OMAHA EPPLEY   CLEAR     44  30  57 SE12      30.05S
BLAIR          CLEAR     44  31  61 SE10      30.03S
FREMONT        CLEAR     43  31  63 SE9       30.01F
MILLARD        CLEAR     43  31  63 SE6       30.03F
OFFUTT AFB     CLEAR     40  29  66 E9        30.04F WCI  34
PLATTSMOUTH    CLEAR     43  29  57 SE8       30.04S
WAHOO          FAIR      37  28  70 SE9       30.01S WCI  30
$$


USA.gov is the U.S. government's official web portal to all federal, state and local government web resources and services.